Location: Bucquoy
(50.1391°N, 2.7097°E)
Time: 06:49:01
(UTC+00:00)

Cosmos 1455 Rocket - Pass Details

Date: 06 May 2021
Orbit: 605 x 629 km, 82.5° (Epoch: 21 June)

Event Time Altitude Azimuth Distance (km) Brightness Sun altitude
Rises 02:38:06 0° 348° (NNW) 2,877 7.0 -13.3°
Reaches altitude 10° 02:40:19 10° 347° (NNW) 1,967 6.1 -13.0°
Maximum altitude 02:44:40 74° 262° (W) 635 3.0 -12.6°
Drops below altitude 10° 02:48:58 10° 178° (S) 1,953 5.2 -12.1°
Enters shadow 02:49:33 - 178° (S) 2,190 5.5 -12.0°
